Regional Weather Roundup
Issued by NWS Wakefield, VA

Home | Current Version | Previous Version | Text Only | Print | Product List | Glossary On
Versions: 1 2 3 4 5 6 7 8 9 10 11 12 13 14 15 16 17 18 19 20 21 22 23 24 25 26 27 28
000
ASUS41 KAKQ 300115
RWRAKQ

REGIONAL WEATHER ROUNDUP
NATIONAL WEATHER SERVICE WAKEFIELD VA
900 PM EDT SUN MAY 29 2016

Note: "fair" indicates few or no clouds below 12,000 feet with no
significant weather and/or obstructions to visibility. * = Denotes
station may not report precipitation (e.g., rain,snow,etc.),
thunder or fog.

VAZ042-051-052>054-056-300200-
NORTHERN VIRGINIA

CITY           SKY/WX    TMP DP  RH WIND       PRES   REMARKS
WASH NATIONAL  LGT RAIN  70  66  87 N9        30.07F
DULLES         LGT RAIN  71  67  87 CALM      30.07F
FORT BELVOIR   LGT RAIN  70  68  94 CALM      30.06F
QUANTICO       LGT RAIN  72  68  87 E6        30.07F
FREDERICKSBRG* LGT RAIN  70  70 100 CALM      30.06R
STAFFORD*      LGT RAIN  69  64  84 N5        30.10F
WARRENTON      LGT RAIN  67  60  77 CALM      30.07S
CULPEPER*      RAIN      69  68  98 CALM      30.09R
MANASSAS*      CLOUDY    70  68  94 W5        30.07S
LEESBURG*      LGT RAIN  73  73 100 S7        30.08S
WINCHESTER     CLOUDY    70  66  88 NW3       30.08S
FRONT ROYAL*   CLOUDY    68  68 100 CALM      30.08S
LURAY*         MOCLDY    66  66 100 S6        30.10S
$$

VAZ048-049-060>072-079>083-300200-
CENTRAL AND SOUTH CENTRAL VIRGINIA

CITY           SKY/WX    TMP DP  RH WIND       PRES   REMARKS
RICHMOND       CLOUDY    70  69  97 N5        30.05S
CHESTERFIELD*  CLOUDY    72  59  64 CALM      30.07R
PETERSBURG*    LGT RAIN  73  73 100 CALM      30.05F
HANOVER        MOCLDY    70  67  90 VRB3      30.07S
TAPPAHANNOCK*  CLOUDY    73  73 100 E5        30.05S
QUINTON*       CLOUDY    73  73 100 CALM      30.05R
CHARLOTTSVILLE CLOUDY    70  63  78 CALM      30.08R
GORDONSVILLE*  CLOUDY    68  68  99 NW3       30.07S
ORANGE*        CLOUDY    70  70 100 CALM      30.10R
LOUISA*        CLOUDY    72  68  88 NE5       30.07S
BUMPASS*       CLOUDY    69  69  98 N3        30.07S
FARMVILLE*     CLOUDY    69  63  82 NW5       30.06R
CREWE*         CLOUDY    68  68 100 N3        30.06S
FORT PICKETT*  NOT AVBL
CHASE CITY*    CLOUDY    67  65  95 CALM      30.06S
CLARKSVILLE*   CLOUDY    64  64 100 SW3       30.06R
SOUTH HILL*    CLOUDY    69  69  99 N8        30.10F
LAWRENCEVILLE* CLOUDY    71  71 100 N7        30.03F
EMPORIA*       LGT SNOW  73  72  94 NW8       30.04F
$$

VAZ088>098-300200-
SOUTHEAST VIRGINIA

CITY           SKY/WX    TMP DP  RH WIND       PRES   REMARKS
NORFOLK        FAIR      77  71  82 S5        30.04S
VIRGINIA BEACH MOCLDY    78  71  79 SE6       30.04S
NORFOLK NAVAL  MOCLDY    77  72  84 SE3       30.06R
WEST POINT*    MOCLDY    73  71  96 E3        30.06S
SALUDA*        MOCLDY    72  72 100 CALM      30.05S
NEWPORT NEWS   FAIR      73  73 100 CALM      30.05R
LANGLEY AFB    MOCLDY    73  73 100 E5        30.05R
FORT EUSTIS    MOCLDY    74  66  75 SE2       30.03R
WILLIAMSBURG*  FAIR      75  73  94 CALM      30.05S
HR EXEC AP*      N/A     72  70  94 CALM      30.06S
FRANKLIN*      FAIR      73  72  95 E5        30.04S
US460-WAKEFLD  FAIR      73  71  93 CALM      30.04S
$$

VAZ020-022-025-037-045-300200-
WEST CENTRAL AND SOUTHWEST VIRGINIA

CITY           SKY/WX    TMP DP  RH WIND       PRES   REMARKS
STAUNTON*      CLOUDY    62  61  95 CALM      30.13F
WAYNESBORO*    CLOUDY    62  61  94 CALM      30.13S
HOT SPRINGS VA RAIN      56  56 100 E7        30.18S
LYNCHBURG      CLOUDY    65  58  78 VRB3      30.11S
DANVILLE       FAIR      66  59  78 N7        30.07S
SOUTH BOSTON*  CLOUDY    67  65  96 N3        30.07R
MARTINSVILLE   MOCLDY    60  59  96 N5        30.12R
ROANOKE        LGT RAIN  61  59  93 N7        30.14S
BLACKSBURG     CLOUDY    62  60  95 CALM      30.16F
DUBLIN*        CLOUDY    65  62  92 E3        30.15S
MARION*        CLOUDY    65  60  82 E3        30.17S
HILLSVILLE*    MOCLDY    63  58  84 CALM      30.15R
RICHLANDS*     FAIR      69  64  85 CALM      30.14S
WISE*          FAIR      70  52  52 CALM      30.15S
ABINGDON*      FAIR      71  58  63 CALM      30.11S
$$

MDZ021>025-VAZ099-100-300200-
SOUTHERN MARYLAND AND THE DELMARVA PENINSULA

CITY           SKY/WX    TMP DP  RH WIND       PRES   REMARKS
PATUXENT RIVER CLOUDY    72  70  93 SE6       30.05S
BAY BRIDGE APT LGT RAIN  73  72  94 CALM      30.06S FOG
LEONARDTOWN    CLOUDY    72  70  94 SE5       30.06F
DOVER          LGT RAIN  72  72 100 E3        30.06S
GEORGETOWN     MOCLDY    74  71  91 S6        30.08S
EASTON         LGT RAIN  75  75 100 S3        30.10S
CAMBRIDGE      CLOUDY    72  72 100 SE3       30.06S
SALISBURY      CLOUDY    73  71  93 SE6       30.07S
OCEAN CITY     CLOUDY    69  68  96 S5        30.08S
WALLOPS ISLAND MOCLDY    72  69  90 SE6       30.08S
ACCOMACK*      MOCLDY    72  68  88 CALM      30.07S
$$

NCZ012>017-030>032-300200-
NORTH CENTRAL AND EASTERN NORTH CAROLINA

CITY           SKY/WX    TMP DP  RH WIND       PRES   REMARKS
ROANOKE RAPIDS MOCLDY    72  72 100 CALM      30.02S
RALEIGH        CLOUDY    68  66  93 VRB3      30.05R
ELIZABETH CITY CLOUDY    76  72  87 SE5       30.05S
AHOSKIE*       MOCLDY    75  72  88 SE3       30.03S
EDENTON*       CLOUDY   N/A N/A N/A SE9       30.04S
CURRITUCK*     LGT RAIN  76  74  92 CALM      30.06S
KILL DEVIL HLS CLOUDY    76  71  86 SE3       30.05S
MANTEO         NOT AVBL
CAPE HATTERAS  CLOUDY    77  74  90 S12       30.05S
TARBORO*       FAIR      77  72  83 SE3       30.03R
GOLDSBORO      CLOUDY    75  75 100 SE6       30.00R
WASHINGTON     CLOUDY    77  71  81 SE7       30.03R
GREENVILLE     CLOUDY    79  72  78 SE7       30.04S
NEW BERN       MOCLDY    76  71  85 SE3       30.04R
WILMINGTON     LGT RAIN  75  73  93 SE3       29.99R
$$

VAZ048-300200-
ELSEWHERE

CITY           SKY/WX    TMP DP  RH WIND       PRES   REMARKS
HARRISBURG PA  LGT RAIN  74  68  81 S8        30.04F
BALTIMORE      LGT RAIN  72  70  93 CALM      30.06S
ANNAPOLIS      LGT RAIN  72  71  97 W5        30.05F FOG
ANDREWS AFB    DRIZZLE   69  67  93 NW9       30.06F
PHILADELPHIA   LGT RAIN  73  71  93 SW8       30.07F FOG
HENDERSON NC   CLOUDY    63  61  93 N7        30.05F
GREENSBORO     LGT RAIN  66  58  75 NE9       30.06F
ROCKY MOUNT    PTCLDY    74  72  93 CALM      30.02R
$$

VAZ100-300200-
MARINE

STATION/POSITION TIME  TEMP    WIND        PRES    WAVE   SWELL
                       AIR SEA DIR/SP/G            HT/PER HT/PER
                 (UTC) (F)     (DEG/KT/KT) (MB)    (FT/S) (FT/S)
BRANDYWINE LGT   0000   66                 1018.5F
CAPE MAY NJ      0000   69 69              1018.3F
LEWES DE         0000   72 64              1018.3F
15NM E FENWICK I 0050   67 65              1018.6F   3/ 7
OCEAN-CITY-INLET 0000   66 60              1019.0F
WACHAPREAGUE VA  0000   72 80              1017.8F
THOMAS POINT MD  0100   72 68  240/  4/  4 1019.1F
GOOSES REEF MD   0100   71 68   CALM  /  2 1018.5F   0
COVE POINT MD    0000   71                 1018.3F
SOLOMONS ISLAND  0000   71 69                N/A
BISHOPS HEAD MD  0000   75 78              1017.9F
POTOMAC MD       0100   72 72  140/  8/  8 1016.5F   0
CAMBRIDGE MD     0000   75 69              1017.1F
LEWISETTA VA     0000   71 70              1017.2F
RAPPAHANNOCK LGT 0000                      1018.4F
STINGRAY PT      0100   72 70  150/  6/  8 1018.0R   0
YORK RVR RNG VA  0000   72                 1016.8F
YORKTOWN VA      0000   74 69              1017.0F
JAMESTOWN VA     0100   75 75  100/  2/  4   N/A     0
DOMINION TERM VA 0000   75                 1017.2F
KIPTOPEKE VA     0000      70                N/A
CHES BAY BRIDGE  0000   73 66              1017.2F
CAPE HENRY VA    0000   72                   N/A
CHESAPEAKE LGHT  0000   71     150/ 13/ 13 1018.3F
WILLOUBY STN VA  0000   77                 1018.2F
CAPE HENRY BUOY  0012      70                N/A     3/ 6
1ST LANDING BUOY 0100   72 70  130/  8/ 12 1017.7R   1/ 4
CAPE CHARLES BUO 0026      69                N/A     3/ 8   2/ 8
OFFSHORE WE BUOY 0021      70                N/A     4/ 6   3/ 6
64NM E OF VA BCH 0050   68 64  150/  8/  8 1018.4R   4/ 6   3/ 6
DUCK PIER NC     0000   68 62              1017.0R
44100 DUCK FRF   0024      69                N/A     4/ 8
44056 DUCK FRF   0011      65                N/A     3/ 6
OREGON INLET NC  0000   77 80              1017.8R
HATTERAS NC      0000   76 77              1017.1R
DIAMOND SHLS NC  0050   78 82  170/ 21/ 25 1017.1S   5/ 8   2/ 9
CAPE LOOKOUT NC  0000   76     140/  7/  8 1016.5R
$$




USA.gov is the U.S. government's official web portal to all federal, state and local government web resources and services.